Weather in Echternach

Luxembourg     49°48′36″N   6°25′15″E
temp.,
°C
wind,
m/s
gust,
m/s
humid.,
%
clouds,
%
prec.,
mm/h
press.,
hPa
HPBL,
m
6 march, sat
sat601:00−1ne388117 0.0 1032225
04:00−2ne36820 0.0 1032154
07:00−2ne38810 0.0 1033274
10:00+3ene58500 0.0 1033720
13:00+6ene57390 0.0 10321076
16:00+6e45390 0.0 10301060
19:00+1ne47550 0.0 1029124
22:00−1ene235928 0.0 102952
7 march, sun
sun701:00−1ne226115 0.0 102825
04:00−2nne23630 0.0 102750
07:00−2ne23660 0.0 102659
10:00+3ene34460 0.0 1025337
13:00+7nne22320 0.0 1024899
16:00+8n22360 0.0 1021902
19:00+2ne23550 0.0 102225
22:00−1nne23820 0.0 102340
8 march, mon
mon801:00−2nne23850 0.0 102341
04:00−2nne23900 0.0 102341
07:00−3nne22920 0.0 102335
10:00+2ne356731 0.0 1023513
13:00+6ne335537 0.0 10231027
16:00+6nne335852 0.0 1021942
19:00+2ene337476 0.0 102169
22:00+1ne1279100 0.0 102122
9 march, tue
tue901:000nne1282100 0.0 102121
04:000nne1282100 0.0 102121
07:00−1nne1286100 0.0 102121
10:00+4ne22688 0.0 1022343
13:00+7n11574 0.0 1022942
16:00+7nnw226035 0.0 10211044
19:00+5nnw227867 0.1 102164
22:00+2nnw118944 0.0 102322
10 march, wed
wed1001:000ne009122 0.0 102222
04:000s119016 0.0 102222
07:000s128858 0.0 102122
10:00+5ssw4770100 0.0 1021499
13:00+7sw61064100 0.0 1019972
16:00+8sw71265100 0.0 10171011
19:00+6ssw51377100 0.0 1015729
22:00+6sw81573100 0.2 1014952